When you browse on this site, cookies collect data to enhance your experience and personalize the content and advertising you see.
Visit our Privacy Policy to learn more. By continuing to use the site, you agree to this use of cookies and data.
  • Em Portugal
  • Lista de países
  • Para 7 dias
  • Temperatura da água
  • Mapas de satélite
  • Mapa do tempo
  • Widgets de tempo
  • user-avatar
    Iniciar Sessão

    Previsão horária em Jambol

    Hoje, 16 Fevereiro, Sábado

    Tempo Temperatura Precipitação Vento Pressão Humidade
    00:00 0°C° 0 mm 4 m/s 760 mmHg 79%
    01:00 0°C° 0 mm 3 m/s 760 mmHg 81%
    02:00 0°C° 0 mm 3 m/s 760 mmHg 83%
    03:00 0°C° 0 mm 3 m/s 760 mmHg 83%
    04:00 -1°C° 0 mm 3 m/s 760 mmHg 84%
    05:00 -1°C° 0 mm 3 m/s 760 mmHg 84%
    06:00 +1°C° 0 mm 2 m/s 760 mmHg 83%
    07:00 +1°C° 0 mm 2 m/s 760 mmHg 82%
    08:00 +1°C° 0 mm 2 m/s 761 mmHg 81%
    09:00 +3°C° 0 mm 2 m/s 761 mmHg 75%
    10:00 +3°C° 0 mm 3 m/s 761 mmHg 68%
    11:00 +5°C° 0 mm 3 m/s 761 mmHg 61%
    12:00 +5°C° 0 mm 3 m/s 761 mmHg 59%
    13:00 +7°C° 0 mm 3 m/s 760 mmHg 56%
    14:00 +8°C° 0 mm 3 m/s 760 mmHg 53%
    15:00 +8°C° 0 mm 3 m/s 760 mmHg 57%
    16:00 +7°C° 0 mm 3 m/s 760 mmHg 60%
    17:00 +7°C° 0 mm 2 m/s 760 mmHg 63%
    18:00 +6°C° 0 mm 2 m/s 760 mmHg 68%
    19:00 +5°C° 0 mm 2 m/s 760 mmHg 73%
    20:00 +3°C° 0 mm 2 m/s 760 mmHg 78%
    21:00 +4°C° 0 mm 1 m/s 760 mmHg 78%
    22:00 +4°C° 0 mm 1 m/s 760 mmHg 78%
    23:00 +4°C° 0 mm 1 m/s 760 mmHg 78%

    Amanhã, 17 Fevereiro, Domingo

    Tempo Temperatura Precipitação Vento Pressão Humidade
    00:00 +4°C° 0 mm 1 m/s 760 mmHg 78%
    01:00 +3°C° 0 mm 1 m/s 760 mmHg 78%
    02:00 +3°C° 0 mm 1 m/s 760 mmHg 77%
    03:00 +3°C° 0 mm 1 m/s 759 mmHg 77%
    04:00 +3°C° 0 mm 1 m/s 759 mmHg 76%
    05:00 +3°C° 0 mm 1 m/s 759 mmHg 76%
    06:00 +3°C° 0 mm 1 m/s 759 mmHg 74%
    07:00 +2°C° 0 mm 0 m/s 759 mmHg 73%
    08:00 +3°C° 0 mm 0 m/s 759 mmHg 71%
    09:00 +6°C° 0 mm 1 m/s 759 mmHg 64%
    10:00 +8°C° 0 mm 1 m/s 759 mmHg 57%
    11:00 +9°C° 0 mm 1 m/s 759 mmHg 50%
    12:00 +11°C° 0 mm 1 m/s 758 mmHg 48%
    13:00 +12°C° 0 mm 1 m/s 758 mmHg 45%
    14:00 +13°C° 0 mm 1 m/s 758 mmHg 43%
    15:00 +11°C° 0 mm 0 m/s 757 mmHg 46%
    16:00 +11°C° 0 mm 0 m/s 757 mmHg 49%
    17:00 +11°C° 0 mm 0 m/s 757 mmHg 51%
    18:00 +10°C° 0 mm 0 m/s 757 mmHg 54%
    19:00 +8°C° 0 mm 0 m/s 757 mmHg 57%
    20:00 +8°C° 0 mm 1 m/s 757 mmHg 60%
    21:00 +8°C° 0 mm 1 m/s 757 mmHg 60%
    22:00 +7°C° 0 mm 1 m/s 757 mmHg 61%
    23:00 +7°C° 0 mm 1 m/s 757 mmHg 61%

    Depois de amanhã, 18 Fevereiro, Segunda-feira

    Tempo Temperatura Precipitação Vento Pressão Humidade
    00:00 +7°C° 0 mm 1 m/s 757 mmHg 61%
    01:00 +6°C° 0 mm 1 m/s 757 mmHg 61%
    02:00 +6°C° 0 mm 1 m/s 756 mmHg 61%
    03:00 +6°C° 0 mm 1 m/s 756 mmHg 60%
    04:00 +6°C° 0 mm 1 m/s 756 mmHg 60%
    05:00 +6°C° 0 mm 1 m/s 756 mmHg 60%
    06:00 +6°C° 0 mm 1 m/s 756 mmHg 60%
    07:00 +6°C° 0 mm 1 m/s 756 mmHg 60%
    08:00 +6°C° 0 mm 1 m/s 757 mmHg 60%
    09:00 +7°C° 0 mm 0 m/s 757 mmHg 55%
    10:00 +9°C° 0 mm 0 m/s 757 mmHg 50%
    11:00 +11°C° 0 mm 0 m/s 757 mmHg 44%
    12:00 +12°C° 0 mm 0 m/s 757 mmHg 42%
    13:00 +13°C° 0 mm 0 m/s 756 mmHg 40%
    14:00 +14°C° 0 mm 0 m/s 756 mmHg 37%
    15:00 +14°C° 0 mm 0 m/s 756 mmHg 41%
    16:00 +14°C° 0 mm 1 m/s 756 mmHg 44%
    17:00 +14°C° 0 mm 1 m/s 756 mmHg 47%
    18:00 +12°C° 0 mm 1 m/s 756 mmHg 52%
    19:00 +11°C° 0 mm 1 m/s 756 mmHg 56%
    20:00 +10°C° 0 mm 1 m/s 756 mmHg 61%
    21:00 +9°C° 0 mm 1 m/s 757 mmHg 64%
    22:00 +8°C° 0 mm 1 m/s 757 mmHg 66%
    23:00 +8°C° 0 mm 1 m/s 757 mmHg 69%

    19 Fevereiro, Terça-feira

    Tempo Temperatura Precipitação Vento Pressão Humidade
    00:00 +8°C° 0 mm 1 m/s 757 mmHg 70%
    01:00 +7°C° 0 mm 1 m/s 757 mmHg 72%
    02:00 +7°C° 0 mm 1 m/s 757 mmHg 74%
    03:00 +6°C° 0 mm 1 m/s 757 mmHg 75%
    04:00 +6°C° 0 mm 1 m/s 757 mmHg 76%
    05:00 +6°C° 0 mm 1 m/s 757 mmHg 78%
    06:00 +6°C° 0 mm 1 m/s 757 mmHg 77%
    07:00 +5°C° 0 mm 0 m/s 757 mmHg 77%
    08:00 +5°C° 0 mm 0 m/s 757 mmHg 77%
    09:00 +8°C° 0 mm 1 m/s 758 mmHg 70%
    10:00 +10°C° 0 mm 1 m/s 758 mmHg 64%
    11:00 +11°C° 0 mm 1 m/s 758 mmHg 57%
    12:00 +12°C° 0 mm 1 m/s 757 mmHg 54%
    13:00 +13°C° 0 mm 1 m/s 757 mmHg 51%
    14:00 +14°C° 0 mm 2 m/s 757 mmHg 48%
    15:00 +14°C° 0 mm 1 m/s 756 mmHg 50%
    16:00 +14°C° 0 mm 1 m/s 756 mmHg 52%
    17:00 +13°C° 0 mm 1 m/s 756 mmHg 54%
    18:00 +12°C° 0 mm 1 m/s 756 mmHg 59%
    19:00 +11°C° 0 mm 1 m/s 756 mmHg 64%
    20:00 +8°C° 0 mm 0 m/s 756 mmHg 69%
    21:00 +8°C° 0 mm 0 m/s 756 mmHg 71%
    22:00 +8°C° 0 mm 0 m/s 756 mmHg 74%
    23:00 +7°C° 0 mm 0 m/s 756 mmHg 77%

    20 Fevereiro, Quarta-feira

    Tempo Temperatura Precipitação Vento Pressão Humidade
    00:00 +8°C° 0 mm 1 m/s 756 mmHg 80%
    01:00 +7°C° 0 mm 1 m/s 756 mmHg 83%
    02:00 +7°C° 0 mm 1 m/s 756 mmHg 86%
    03:00 +7°C° 0 mm 1 m/s 755 mmHg 87%
    04:00 +6°C° 0 mm 1 m/s 755 mmHg 89%
    05:00 +6°C° 0 mm 1 m/s 755 mmHg 90%
    06:00 +6°C° 0 mm 1 m/s 755 mmHg 89%
    07:00 +6°C° 0 mm 1 m/s 755 mmHg 88%
    08:00 +7°C° 0 mm 1 m/s 755 mmHg 87%
    09:00 +9°C° 0 mm 1 m/s 755 mmHg 77%
    10:00 +10°C° 0 mm 2 m/s 756 mmHg 68%
    11:00 +13°C° 0 mm 2 m/s 756 mmHg 58%
    12:00 +14°C° 0 mm 2 m/s 755 mmHg 52%
    13:00 +15°C° 0 mm 2 m/s 755 mmHg 47%
    14:00 +16°C° 0 mm 2 m/s 755 mmHg 41%
    15:00 +16°C° 0 mm 2 m/s 755 mmHg 43%
    16:00 +15°C° 0 mm 1 m/s 755 mmHg 44%
    17:00 +15°C° 0 mm 1 m/s 755 mmHg 46%
    18:00 +14°C° 0 mm 1 m/s 755 mmHg 50%
    19:00 +12°C° 0 mm 1 m/s 756 mmHg 54%
    20:00 +11°C° 0 mm 1 m/s 756 mmHg 58%
    21:00 +10°C° 0 mm 1 m/s 756 mmHg 60%
    22:00 +10°C° 0 mm 1 m/s 756 mmHg 61%
    23:00 +9°C° 0 mm 1 m/s 756 mmHg 63%

    21 Fevereiro, Quinta-feira

    Tempo Temperatura Precipitação Vento Pressão Humidade
    00:00 +9°C° 0 mm 1 m/s 756 mmHg 64%
    01:00 +8°C° 0 mm 1 m/s 756 mmHg 65%
    02:00 +8°C° 0 mm 1 m/s 756 mmHg 66%
    03:00 +8°C° 0 mm 1 m/s 756 mmHg 67%
    04:00 +7°C° 0 mm 1 m/s 756 mmHg 68%
    05:00 +7°C° 0 mm 1 m/s 756 mmHg 68%
    06:00 +7°C° 0 mm 1 m/s 757 mmHg 68%
    07:00 +7°C° 0 mm 1 m/s 757 mmHg 69%
    08:00 +7°C° 0 mm 1 m/s 757 mmHg 69%
    09:00 +9°C° 0 mm 1 m/s 757 mmHg 62%
    10:00 +11°C° 0 mm 1 m/s 757 mmHg 56%
    11:00 +13°C° 0 mm 2 m/s 757 mmHg 49%
    12:00 +14°C° 0 mm 2 m/s 757 mmHg 47%
    13:00 +15°C° 0 mm 2 m/s 756 mmHg 44%
    14:00 +16°C° 0 mm 2 m/s 756 mmHg 41%
    15:00 +15°C° 0 mm 1 m/s 756 mmHg 43%
    16:00 +15°C° 0 mm 1 m/s 756 mmHg 46%
    17:00 +15°C° 0 mm 1 m/s 755 mmHg 48%
    18:00 +13°C° 0 mm 1 m/s 755 mmHg 52%
    19:00 +12°C° 0 mm 1 m/s 755 mmHg 56%
    20:00 +11°C° 0 mm 1 m/s 755 mmHg 60%
    21:00 +10°C° 0 mm 1 m/s 755 mmHg 62%
    22:00 +9°C° 0 mm 0 m/s 755 mmHg 64%
    23:00 +8°C° 0 mm 0 m/s 755 mmHg 65%
    Mostrar mais